When you browse on this site, cookies collect data to enhance your experience and personalize the content and advertising you see.
Visit our Privacy Policy to learn more. By continuing to use the site, you agree to this use of cookies and data.
  • en France
  • Liste des pays
  • À 7 jours
  • Température de l'eau
  • Carte satellitaire
  • Carte météo
  • Widgets météo
  • user-avatar
    Se connecter

    Météo par heure à Arauca

    Ce jour, 20 Novembre, Mardi

    Heure Température Précipitation Vent Pression Humidité
    00:00 +25°C° 0.9 mm 1 m/s 747 mmHg 95%
    01:00 +24°C° 0 mm 1 m/s 747 mmHg 95%
    02:00 +24°C° 0.8 mm 1 m/s 747 mmHg 95%
    03:00 +24°C° 0.8 mm 1 m/s 747 mmHg 96%
    04:00 +23°C° 0.8 mm 1 m/s 747 mmHg 96%
    05:00 +24°C° 0.3 mm 1 m/s 748 mmHg 94%
    06:00 +24°C° 0.3 mm 1 m/s 748 mmHg 93%
    07:00 +25°C° 0 mm 1 m/s 749 mmHg 90%
    08:00 +27°C° 0 mm 2 m/s 749 mmHg 82%
    09:00 +29°C° 0 mm 2 m/s 749 mmHg 74%
    10:00 +31°C° 0 mm 2 m/s 749 mmHg 66%
    11:00 +31°C° 0.4 mm 2 m/s 748 mmHg 67%
    12:00 +32°C° 0.4 mm 2 m/s 747 mmHg 67%
    13:00 +32°C° 0.4 mm 2 m/s 746 mmHg 68%
    14:00 +32°C° 0.3 mm 2 m/s 746 mmHg 71%
    15:00 +31°C° 0.3 mm 2 m/s 746 mmHg 74%
    16:00 +31°C° 0.3 mm 1 m/s 745 mmHg 77%
    17:00 +29°C° 0 mm 1 m/s 746 mmHg 82%
    18:00 +28°C° 0 mm 1 m/s 746 mmHg 86%
    19:00 +27°C° 0 mm 1 m/s 747 mmHg 91%
    20:00 +26°C° 0.6 mm 1 m/s 747 mmHg 92%
    21:00 +26°C° 0.6 mm 1 m/s 747 mmHg 93%
    22:00 +26°C° 0.6 mm 1 m/s 748 mmHg 95%
    23:00 +25°C° 0.3 mm 1 m/s 748 mmHg 95%

    Demain, 21 Novembre, Mercredi

    Heure Température Précipitation Vent Pression Humidité
    00:00 +25°C° 0.3 mm 1 m/s 748 mmHg 96%
    01:00 +25°C° 0.3 mm 1 m/s 747 mmHg 97%
    02:00 +25°C° 0.3 mm 1 m/s 747 mmHg 96%
    03:00 +24°C° 0.3 mm 1 m/s 747 mmHg 96%
    04:00 +24°C° 0.3 mm 1 m/s 747 mmHg 96%
    05:00 +25°C° 0.1 mm 1 m/s 748 mmHg 94%
    06:00 +25°C° 0.1 mm 1 m/s 748 mmHg 93%
    07:00 +25°C° 0.1 mm 1 m/s 749 mmHg 91%
    08:00 +27°C° 0 mm 2 m/s 749 mmHg 84%
    09:00 +28°C° 0 mm 2 m/s 749 mmHg 77%
    10:00 +30°C° 0 mm 2 m/s 749 mmHg 70%
    11:00 +31°C° 0 mm 2 m/s 749 mmHg 68%
    12:00 +32°C° 0 mm 2 m/s 748 mmHg 65%
    13:00 +32°C° 0 mm 2 m/s 747 mmHg 62%
    14:00 +32°C° 0 mm 2 m/s 746 mmHg 65%
    15:00 +32°C° 0 mm 2 m/s 746 mmHg 68%
    16:00 +32°C° 0 mm 2 m/s 745 mmHg 71%
    17:00 +30°C° 0 mm 1 m/s 745 mmHg 76%
    18:00 +29°C° 0 mm 1 m/s 746 mmHg 81%
    19:00 +27°C° 0 mm 1 m/s 746 mmHg 85%
    20:00 +27°C° 0 mm 1 m/s 747 mmHg 87%
    21:00 +26°C° 0 mm 1 m/s 747 mmHg 89%
    22:00 +26°C° 0 mm 1 m/s 748 mmHg 90%
    23:00 +26°C° 0 mm 1 m/s 747 mmHg 92%

    Après-demain, 22 Novembre, Jeudi

    Heure Température Précipitation Vent Pression Humidité
    00:00 +25°C° 0 mm 1 m/s 747 mmHg 93%
    01:00 +25°C° 0 mm 1 m/s 747 mmHg 94%
    02:00 +25°C° 0 mm 1 m/s 747 mmHg 95%
    03:00 +25°C° 0 mm 1 m/s 747 mmHg 95%
    04:00 +25°C° 0 mm 1 m/s 747 mmHg 96%
    05:00 +25°C° 0.2 mm 1 m/s 747 mmHg 94%
    06:00 +26°C° 0.2 mm 1 m/s 747 mmHg 93%
    07:00 +26°C° 0.2 mm 2 m/s 748 mmHg 91%
    08:00 +27°C° 0.3 mm 2 m/s 748 mmHg 86%
    09:00 +28°C° 0.3 mm 3 m/s 749 mmHg 81%
    10:00 +30°C° 0.3 mm 3 m/s 749 mmHg 76%
    11:00 +30°C° 0.2 mm 3 m/s 748 mmHg 73%
    12:00 +31°C° 0.2 mm 3 m/s 747 mmHg 70%
    13:00 +33°C° 0.2 mm 3 m/s 746 mmHg 67%
    14:00 +32°C° 0 mm 2 m/s 746 mmHg 69%
    15:00 +31°C° 0 mm 2 m/s 745 mmHg 70%
    16:00 +31°C° 0 mm 2 m/s 744 mmHg 72%
    17:00 +30°C° 0 mm 1 m/s 745 mmHg 76%
    18:00 +28°C° 0 mm 1 m/s 745 mmHg 80%
    19:00 +27°C° 0 mm 1 m/s 746 mmHg 84%
    20:00 +27°C° 0 mm 1 m/s 746 mmHg 86%
    21:00 +26°C° 0 mm 1 m/s 747 mmHg 87%
    22:00 +26°C° 0 mm 1 m/s 747 mmHg 88%
    23:00 +25°C° 0 mm 1 m/s 747 mmHg 89%

    23 Novembre, Vendredi

    Heure Température Précipitation Vent Pression Humidité
    00:00 +25°C° 0 mm 1 m/s 746 mmHg 91%
    01:00 +25°C° 0 mm 1 m/s 746 mmHg 92%
    02:00 +25°C° 0 mm 1 m/s 746 mmHg 93%
    03:00 +24°C° 0 mm 1 m/s 746 mmHg 93%
    04:00 +24°C° 0 mm 1 m/s 746 mmHg 94%
    05:00 +25°C° 0 mm 1 m/s 746 mmHg 92%
    06:00 +25°C° 0 mm 1 m/s 747 mmHg 89%
    07:00 +26°C° 0 mm 1 m/s 747 mmHg 87%
    08:00 +27°C° 0 mm 1 m/s 748 mmHg 81%
    09:00 +29°C° 0 mm 2 m/s 748 mmHg 74%
    10:00 +30°C° 0 mm 2 m/s 748 mmHg 68%
    11:00 +31°C° 0 mm 2 m/s 747 mmHg 66%
    12:00 +31°C° 0 mm 2 m/s 747 mmHg 64%
    13:00 +32°C° 0 mm 2 m/s 746 mmHg 62%
    14:00 +31°C° 0 mm 2 m/s 745 mmHg 65%
    15:00 +31°C° 0 mm 1 m/s 744 mmHg 69%
    16:00 +30°C° 0 mm 1 m/s 744 mmHg 72%
    17:00 +29°C° 0 mm 1 m/s 744 mmHg 76%
    18:00 +28°C° 0 mm 1 m/s 745 mmHg 81%
    19:00 +26°C° 0 mm 1 m/s 745 mmHg 85%
    20:00 +26°C° 0 mm 1 m/s 746 mmHg 86%
    21:00 +26°C° 0 mm 1 m/s 746 mmHg 87%
    22:00 +25°C° 0 mm 1 m/s 747 mmHg 88%
    23:00 +25°C° 0 mm 1 m/s 746 mmHg 88%

    24 Novembre, Samedi

    Heure Température Précipitation Vent Pression Humidité
    00:00 +25°C° 0 mm 1 m/s 746 mmHg 89%
    01:00 +25°C° 0 mm 1 m/s 746 mmHg 89%
    02:00 +25°C° 0 mm 1 m/s 746 mmHg 89%
    03:00 +25°C° 0 mm 1 m/s 746 mmHg 90%
    04:00 +25°C° 0 mm 1 m/s 746 mmHg 90%
    05:00 +25°C° 0 mm 1 m/s 746 mmHg 89%
    06:00 +25°C° 0 mm 1 m/s 747 mmHg 87%
    07:00 +26°C° 0 mm 1 m/s 747 mmHg 86%
    08:00 +27°C° 0 mm 1 m/s 748 mmHg 79%
    09:00 +29°C° 0 mm 2 m/s 748 mmHg 73%
    10:00 +31°C° 0 mm 2 m/s 748 mmHg 66%
    11:00 +31°C° 0 mm 2 m/s 747 mmHg 63%
    12:00 +32°C° 0 mm 2 m/s 746 mmHg 61%
    13:00 +34°C° 0 mm 2 m/s 746 mmHg 59%
    14:00 +32°C° 0 mm 2 m/s 745 mmHg 63%
    15:00 +32°C° 0 mm 2 m/s 745 mmHg 67%
    16:00 +31°C° 0 mm 2 m/s 744 mmHg 70%
    17:00 +30°C° 0 mm 1 m/s 745 mmHg 75%
    18:00 +28°C° 0 mm 1 m/s 745 mmHg 80%
    19:00 +27°C° 0 mm 1 m/s 746 mmHg 85%
    20:00 +26°C° 0 mm 1 m/s 746 mmHg 86%
    21:00 +26°C° 0 mm 1 m/s 746 mmHg 88%
    22:00 +26°C° 0 mm 1 m/s 747 mmHg 90%
    23:00 +25°C° 0 mm 1 m/s 747 mmHg 91%

    25 Novembre, Dimanche

    Heure Température Précipitation Vent Pression Humidité
    00:00 +25°C° 0 mm 1 m/s 746 mmHg 92%
    01:00 +25°C° 0 mm 1 m/s 746 mmHg 94%
    02:00 +25°C° 0 mm 1 m/s 746 mmHg 94%
    03:00 +24°C° 0 mm 1 m/s 746 mmHg 94%
    04:00 +24°C° 0 mm 1 m/s 746 mmHg 95%
    05:00 +25°C° 0 mm 1 m/s 747 mmHg 91%
    06:00 +26°C° 0 mm 1 m/s 747 mmHg 88%
    07:00 +26°C° 0 mm 1 m/s 748 mmHg 84%
    08:00 +28°C° 0.1 mm 2 m/s 748 mmHg 77%
    09:00 +30°C° 0.1 mm 2 m/s 748 mmHg 69%
    10:00 +31°C° 0.1 mm 2 m/s 748 mmHg 61%
    11:00 +32°C° 0.1 mm 2 m/s 747 mmHg 59%
    12:00 +34°C° 0.1 mm 2 m/s 746 mmHg 56%
    13:00 +35°C° 0.1 mm 2 m/s 746 mmHg 54%
    14:00 +34°C° 0 mm 2 m/s 745 mmHg 57%
    15:00 +34°C° 0 mm 2 m/s 745 mmHg 60%
    16:00 +34°C° 0 mm 2 m/s 744 mmHg 62%
    17:00 +31°C° 0 mm 1 m/s 745 mmHg 68%
    18:00 +29°C° 0 mm 1 m/s 745 mmHg 75%
    19:00 +27°C° 0 mm 1 m/s 746 mmHg 81%
    20:00 +27°C° 0 mm 1 m/s 746 mmHg 83%
    21:00 +27°C° 0 mm 1 m/s 746 mmHg 84%
    22:00 +26°C° 0 mm 1 m/s 747 mmHg 86%
    23:00 +26°C° 0 mm 1 m/s 747 mmHg 87%
    Voir plus